Temperature
25 26 27 27 27 27 26 26 25 25 25 26 25 25 25 24 24 23 23 23 22 22 21 19 18 17 16 15 15 14 13 13 13 12 12 12 12 11 11 11 11 11 11 11
24 26 27 27 27 27 27 26 26 25 25 25 25 24 23 23 22 22 22 22 22 21 20 19 18 17 16 16 15 14 13 13 13 12 12 12 12 11 11 11 11 11 11 11
23 25 26 25 26 26 26 26 24 23 23 24 23 22 22 21 22 22 22 22 21 21 20 19 18 17 16 15 15 14 13 13 13 13 12 12 12 11 11 11 11 11 11 12
23 24 23 25 27 26 25 24 23 22 22 22 21 21 21 21 21 20 20 20 20 20 20 19 18 17 16 15 15 14 14 13 13 13 12 12 12 11 11 11 11 11 12 12
22 23 24 25 24 24 23 22 20 20 20 20 19 19 20 20 19 19 19 19 19 19 19 19 18 17 17 16 15 14 14 13 13 13 12 12 12 12 11 11 11 11 12 12
22 21 21 21 22 22 22 21 17 17 17 17 17 17 17 17 17 17 17 18 19 19 19 19 18 17 16 16 15 14 14 13 13 13 13 12 12 12 12 11 11 11 12 12
21 21 22 17 19 20 19 15 14 14 13 13 14 14 14 15 15 15 15 16 17 17 18 18 17 17 16 15 15 14 14 13 13 13 13 12 12 12 12 11 11 11 11 11
22 20 19 14 15 13 11 11 10 10 10 10 10 11 11 12 12 13 14 14 14 15 16 16 16 16 15 15 14 14 14 13 13 13 12 12 12 12 12 11 11 11 11 11
20 16 11 10 10 9 9 9 8 8 8 8 9 9 9 10 10 11 12 12 12 13 13 14 15 15 15 15 14 14 13 13 13 13 12 12 12 12 11 11 11 11 11 11
18 14 12 10 10 9 9 8 8 8 9 9 8 9 9 9 9 10 10 11 11 11 12 12 13 14 14 14 14 13 13 13 13 12 12 12 12 12 11 11 11 11 11 11
15 11 11 11 9 9 9 9 9 9 10 10 10 10 9 9 9 9 9 10 10 11 11 11 12 13 13 13 13 13 13 12 12 12 12 12 12 12 11 11 11 12 12 11
10 9 9 9 8 8 8 9 9 10 10 11 11 11 10 10 10 9 9 9 9 10 10 10 11 11 12 13 13 13 12 12 12 12 12 12 12 11 11 11 12 12 12 11
8 8 8 8 9 9 10 10 11 11 11 11 11 11 10 10 10 9 9 9 9 9 9 10 10 11 11 12 12 12 12 12 12 12 12 12 12 11 11 11 11 11 12 11
9 9 9 10 10 11 11 11 11 11 11 11 11 11 10 10 10 10 9 9 9 9 9 9 10 10 11 11 11 12 12 12 12 13 13 12 12 12 11 11 11 11 11 11
10 10 11 11 11 11 11 11 11 11 11 11 11 10 10 10 10 9 9 9 9 9 9 9 9 9 10 10 10 11 12 12 12 13 13 13 13 12 12 11 11 10 10 10
11 11 11 12 11 11 11 11 11 11 11 10 10 10 9 9 9 9 9 9 9 9 9 9 9 9 9 9 10 10 11 12 12 13 13 13 13 13 12 12 11 11 10 10
11 12 11 11 11 11 10 10 10 10 9 9 9 9 9 9 9 9 9 8 8 8 8 9 9 8 9 9 9 9 10 12 12 13 13 13 13 13 13 12 12 11 10 10
11 11 10 10 10 10 9 9 9 8 8 8 8 8 8 8 8 8 8 8 8 8 8 8 9 8 8 9 9 9 10 11 12 12 13 13 13 13 13 12 12 11 10 10
10 10 10 10 9 9 9 8 8 7 7 7 6 6 6 6 6 7 7 7 7 7 8 8 9 9 8 8 8 9 10 11 12 12 12 12 12 13 13 12 12 11 11 10
10 10 9 9 9 8 8 7 7 6 6 5 5 4 4 4 5 5 5 6 6 7 7 8 8 8 8 8 8 9 10 10 11 12 12 12 12 13 13 12 12 12 11 11
9 9 9 9 8 8 8 7 6 5 4 4 3 3 3 3 3 3 4 5 6 6 7 7 8 8 8 8 8 8 9 10 11 11 12 12 12 13 13 12 12 12 12 11
9 9 9 8 8 8 7 6 5 4 3 3 2 2 2 2 3 3 3 4 5 6 6 7 8 8 8 8 8 8 9 10 11 11 12 12 13 13 13 13 12 12 12 12
9 9 9 8 8 8 7 6 5 3 3 2 2 2 2 2 3 3 3 4 4 5 6 7 7 7 8 7 8 8 9 10 10 11 12 12 13 13 13 13 13 13 13 13
9 9 9 8 8 7 6 5 4 3 2 2 2 2 3 3 3 3 3 4 4 5 6 7 7 7 7 7 8 8 9 10 10 11 12 12 13 13 13 13 13 13 13 13
9 9 9 8 8 7 6 5 4 3 2 3 3 3 4 4 4 4 4 4 5 5 6 7 7 7 7 7 8 8 9 10 10 11 12 13 13 13 13 13 13 13 13 13
9 9 8 8 7 6 5 4 3 3 3 3 3 4 4 5 5 5 5 5 5 6 6 7 7 8 8 8 8 8 9 10 10 11 12 13 13 14 14 13 13 13 13 13
8 8 8 7 6 6 4 3 3 3 3 3 4 4 5 5 5 5 5 6 6 7 7 8 8 8 8 8 8 8 9 10 10 11 12 13 14 14 14 14 14 14 14 13
Wind_Speed
16 18 20 20 20 18 17 17 18 18 18 16 14 14 12 12 12 13 12 11 8 4 2 2 4 4 5 5 4 4 3 3 3 3 3 4 4 3 3 3 3 2 1 2
19 20 20 20 18 16 13 12 13 15 16 16 15 14 13 14 15 16 15 12 9 6 4 3 4 5 5 4 4 5 5 5 5 6 5 4 3 2 0 0 0 0 2 5
17 19 18 15 10 7 7 10 12 15 16 16 15 16 16 16 17 18 15 12 9 7 5 4 5 5 5 5 5 5 6 6 7 7 7 6 5 4 3 3 3 3 5 8
14 17 16 10 9 9 8 8 14 14 16 17 18 18 15 14 13 14 14 14 11 9 7 5 5 6 7 6 6 6 6 7 7 9 9 8 6 5 4 3 3 5 6 8
11 14 14 10 12 10 8 6 17 17 18 20 21 20 17 17 17 16 15 12 10 10 10 6 5 6 6 6 6 7 7 6 7 10 10 10 8 6 5 4 5 6 6 7
11 15 15 9 14 12 9 6 20 21 21 22 22 18 17 22 23 22 20 15 12 11 9 7 6 6 6 7 7 7 7 6 7 9 11 11 9 7 5 5 5 6 7 7
13 14 5 13 16 13 7 10 20 22 22 22 19 17 21 24 23 21 20 20 18 14 9 6 6 7 7 8 8 7 7 7 7 9 11 11 10 7 7 6 6 6 8 7
9 10 4 19 11 8 8 13 16 18 19 20 21 23 25 26 26 25 22 21 21 18 13 8 8 9 9 9 8 7 6 7 8 9 11 12 11 9 8 7 7 7 7 7
5 4 7 12 10 8 9 11 13 15 17 18 20 21 23 24 25 26 25 22 19 19 18 13 10 10 12 10 8 7 7 8 8 10 9 11 12 12 10 8 9 9 9 8
3 8 6 9 11 11 11 12 13 14 15 15 16 18 20 20 21 22 23 23 20 19 19 18 14 11 11 9 8 8 8 8 8 9 10 11 10 11 11 11 10 10 10 9
5 8 10 11 14 15 15 16 17 17 17 17 18 19 19 17 17 18 20 20 20 18 17 18 18 14 12 11 9 10 9 9 10 10 10 11 11 9 9 8 9 8 7 7
5 7 8 13 14 17 18 20 21 22 23 22 21 21 21 18 16 16 17 18 19 20 19 18 17 16 12 11 11 11 10 10 10 10 10 10 10 8 5 4 9 12 11 10
5 8 12 15 18 20 22 24 24 24 25 24 23 22 21 20 18 17 17 17 19 20 19 18 16 15 13 12 12 12 11 11 11 11 11 12 11 11 9 7 9 10 14 16
9 12 16 19 21 23 25 26 26 27 26 25 24 23 22 21 20 19 18 18 18 19 20 19 16 14 12 11 12 13 14 13 11 10 11 12 12 12 12 12 10 6 7 15
13 15 20 23 24 25 26 26 27 27 26 25 24 23 23 22 21 21 20 20 18 18 18 18 18 14 11 11 11 14 14 12 12 10 9 10 11 12 12 13 12 12 10 7
19 21 22 24 26 27 28 29 28 28 27 26 24 22 23 23 22 21 20 19 19 19 16 15 16 14 11 10 11 11 13 15 14 11 10 10 10 11 11 11 11 12 13 12
22 24 25 26 27 28 28 28 27 27 27 26 25 25 24 23 22 21 21 20 19 18 16 14 14 13 10 9 9 9 12 14 14 12 10 10 10 10 10 11 12 11 13 16
22 24 24 26 26 27 27 27 27 27 26 27 27 26 24 23 23 22 21 20 20 19 18 16 12 9 9 9 8 9 11 12 13 13 10 9 9 10 10 11 12 13 11 14
24 24 25 26 26 26 26 26 26 26 26 25 25 25 24 24 24 23 22 21 21 20 18 15 9 7 9 9 9 8 11 10 10 12 10 10 11 10 10 11 12 13 12 14
24 25 26 27 26 26 25 25 25 24 24 24 24 25 25 25 24 24 23 21 18 17 16 15 11 9 8 7 7 8 11 10 10 12 12 11 11 10 10 11 12 13 12 14
26 27 27 27 26 26 25 24 23 24 24 24 25 25 25 24 23 21 20 19 19 18 16 14 10 8 6 5 5 7 9 9 9 11 12 12 11 11 11 11 13 12 13 13
26 26 27 27 27 26 24 21 21 23 24 25 26 26 25 23 22 20 20 17 18 18 14 12 10 6 5 4 4 6 8 8 8 10 11 11 11 11 11 12 12 12 12 13
24 25 26 26 26 25 24 21 21 22 24 26 26 25 24 21 17 16 16 15 14 15 12 11 8 6 6 5 5 6 7 7 8 10 12 12 11 11 11 12 11 12 11 12
24 24 25 24 24 23 22 22 23 21 23 24 23 24 22 17 14 13 14 15 16 17 13 11 10 10 9 6 5 5 6 7 7 9 11 13 12 12 12 11 12 12 12 13
23 24 24 23 22 19 19 20 23 23 24 21 23 23 18 13 12 12 12 13 15 13 12 12 13 12 9 6 6 6 6 7 7 8 7 9 13 13 13 13 12 12 12 12
21 20 19 18 17 15 15 16 17 18 20 21 20 18 16 12 10 9 9 11 14 12 11 9 7 8 7 7 6 7 7 7 8 9 8 7 12 13 12 13 14 13 11 11
22 19 16 19 19 18 17 17 18 20 20 21 22 20 17 12 8 7 8 8 8 8 8 7 6 7 7 7 7 7 7 8 8 8 8 7 8 10 12 13 12 11 11 11
Wind_Direction
292 296 295 292 291 290 288 289 291 299 306 323 345 344 344 340 335 327 321 311 300 292 290 272 267 265 262 260 255 251 245 229 186 151 130 108 89 62 23 5 4 348 9 83
290 291 292 290 289 288 290 299 311 319 323 342 347 351 353 348 337 325 317 312 309 307 301 279 258 258 257 253 250 236 236 227 191 170 162 150 143 146 120 4 255 182 81 77
290 296 299 295 308 306 303 320 335 330 337 349 353 354 348 338 323 315 317 319 318 313 294 260 237 234 238 242 239 232 230 229 197 183 178 173 173 176 184 198 186 134 96 91
286 290 285 296 349 337 321 351 2 354 355 353 346 338 328 323 335 342 332 323 316 305 295 270 238 221 214 224 229 229 229 227 203 188 183 177 179 179 183 182 154 121 107 106
289 291 295 332 17 8 344 351 29 2 350 345 340 330 326 341 340 327 315 304 296 288 277 265 248 236 224 222 228 232 231 219 202 189 181 178 179 177 174 164 149 135 122 118
273 288 294 349 360 348 313 288 14 358 352 347 344 334 327 332 330 328 324 315 302 290 269 248 235 226 227 230 227 230 225 212 195 183 180 180 177 171 170 164 164 153 136 131
264 268 259 20 4 354 330 346 358 358 355 351 344 332 328 333 334 333 332 328 322 311 285 244 224 213 218 231 234 227 212 199 189 177 178 178 171 170 170 172 172 160 142 141
304 291 302 16 30 39 356 350 356 356 353 346 339 335 335 335 334 332 333 334 333 331 316 272 226 213 217 223 228 222 204 196 185 176 181 177 171 174 177 174 164 155 152 150
9 57 83 52 57 33 6 354 348 344 339 335 331 329 328 328 328 328 329 330 331 330 329 304 255 219 219 217 216 219 205 191 184 181 187 169 173 174 176 178 176 171 171 169
25 80 74 55 25 5 351 336 326 320 314 313 312 312 314 316 317 320 322 324 326 328 329 322 296 249 224 213 207 211 207 188 181 179 177 173 177 178 181 183 188 184 180 175
4 11 350 352 349 337 328 320 314 309 303 300 298 299 301 303 307 312 315 316 319 320 322 324 321 288 236 214 209 210 204 188 184 183 179 176 179 182 190 188 189 183 180 167
353 349 319 312 313 311 307 304 301 299 300 301 301 301 302 301 300 300 304 309 313 316 320 322 325 314 276 226 209 209 204 194 189 185 179 176 174 162 73 126 153 160 157 152
295 292 287 288 290 291 292 295 299 302 305 306 305 304 303 300 299 299 300 304 308 311 311 313 318 319 306 258 226 210 208 197 193 188 180 179 176 169 154 96 86 114 139 141
282 282 288 294 298 301 302 303 302 301 300 299 299 300 300 300 300 300 301 301 301 304 305 305 309 317 322 296 249 221 211 201 197 193 181 180 177 176 172 168 161 141 117 136
296 294 296 300 302 304 306 306 306 305 305 303 302 302 302 301 302 303 303 301 298 296 298 301 304 311 322 317 278 236 216 206 199 196 184 182 178 177 179 178 179 170 149 140
308 308 309 311 314 316 317 317 315 313 312 310 307 304 301 299 298 299 302 304 301 295 292 295 298 303 314 316 300 256 225 215 198 196 188 184 183 183 182 181 181 175 170 165
318 320 323 323 321 320 321 320 318 317 316 314 312 308 303 300 297 296 298 300 301 297 291 285 286 293 302 305 294 262 229 215 203 198 191 185 186 189 185 181 182 180 176 172
324 324 322 321 320 320 320 320 319 318 316 315 314 311 308 304 300 298 298 298 297 295 291 284 279 283 291 295 289 259 236 217 201 200 195 188 184 187 186 183 183 181 177 169
326 323 321 321 321 320 320 319 318 317 316 316 315 313 309 306 303 301 299 297 295 294 291 287 270 260 278 286 288 261 241 225 199 196 197 187 187 189 188 184 183 183 178 171
323 322 323 322 322 320 318 317 318 317 316 316 314 311 308 305 303 300 298 294 288 287 288 286 276 266 272 278 285 264 240 223 204 195 197 197 195 191 186 185 186 188 184 176
323 323 322 321 320 318 317 318 319 317 317 316 311 306 303 300 297 295 292 288 287 288 288 282 268 258 256 270 277 261 240 222 208 200 197 200 194 192 191 187 187 191 190 185
322 321 320 320 320 319 320 322 322 320 318 313 308 304 300 296 292 287 281 278 279 280 281 279 269 250 229 248 261 253 237 224 216 204 197 201 194 189 193 190 189 193 195 193
320 320 321 321 320 321 324 327 325 322 317 313 308 304 299 292 287 281 279 276 276 276 274 274 263 220 203 230 242 240 236 227 225 214 198 197 197 191 194 194 193 194 195 196
320 322 322 322 324 326 328 328 325 321 316 312 307 303 299 293 285 274 269 270 267 270 270 264 237 215 211 233 235 230 228 230 232 224 205 194 194 193 194 197 196 196 197 195
324 324 324 327 329 331 330 329 326 323 320 317 312 309 303 289 280 276 271 270 268 264 267 255 223 210 215 229 226 222 225 228 234 234 218 196 192 191 192 197 198 198 200 200
327 324 327 327 333 332 333 329 325 322 322 321 321 319 314 305 286 274 267 265 264 259 262 259 228 206 219 223 223 221 226 229 231 233 230 213 197 192 191 194 196 199 202 203
327 328 330 333 335 336 334 328 323 323 323 323 324 322 320 316 302 286 274 270 268 263 261 254 230 207 211 217 221 220 221 226 230 224 222 222 205 194 193 191 196 198 199 201
Height
1494 1487 1482 1479 1476 1473 1475 1476 1481 1477 1473 1469 1467 1468 1468 1468 1469 1469 1468 1467 1466 1465 1465 1465 1465 1464 1464 1463 1462 1461 1459 1458 1456 1454 1453 1451 1450 1450 1450 1449 1449 1449 1450 1452
1496 1485 1478 1474 1468 1467 1468 1469 1472 1473 1473 1469 1470 1470 1470 1470 1470 1468 1466 1464 1462 1462 1461 1461 1461 1461 1460 1459 1458 1457 1456 1455 1454 1453 1453 1452 1452 1452 1452 1452 1453 1454 1454 1455
1498 1484 1480 1480 1468 1467 1469 1470 1475 1480 1478 1473 1473 1474 1474 1472 1470 1467 1464 1462 1460 1459 1458 1457 1456 1456 1455 1455 1454 1453 1453 1452 1452 1451 1451 1452 1452 1453 1454 1455 1456 1457 1458 1459
1497 1493 1498 1476 1463 1465 1469 1473 1478 1479 1480 1480 1479 1478 1475 1472 1469 1466 1464 1461 1459 1456 1454 1453 1452 1451 1450 1450 1450 1449 1449 1449 1449 1449 1449 1450 1451 1453 1455 1456 1458 1459 1460 1461
1499 1494 1483 1471 1472 1475 1479 1483 1489 1488 1486 1484 1481 1477 1473 1472 1470 1467 1463 1459 1455 1452 1450 1448 1447 1446 1446 1445 1445 1445 1445 1445 1445 1446 1447 1448 1450 1452 1455 1457 1459 1461 1462 1463
1498 1502 1502 1492 1482 1480 1481 1485 1495 1493 1491 1488 1483 1481 1478 1475 1470 1465 1460 1455 1450 1447 1444 1442 1441 1441 1441 1440 1440 1440 1441 1441 1442 1442 1444 1446 1448 1451 1454 1457 1459 1461 1463 1465
1494 1495 1488 1501 1491 1487 1495 1507 1503 1500 1497 1494 1491 1489 1483 1475 1469 1463 1457 1450 1445 1441 1437 1435 1434 1434 1434 1434 1434 1435 1436 1437 1438 1439 1441 1443 1446 1449 1453 1456 1459 1462 1464 1466
1489 1493 1499 1508 1501 1510 1517 1513 1508 1504 1501 1498 1493 1487 1481 1474 1468 1461 1454 1447 1442 1435 1431 1429 1427 1427 1427 1428 1428 1429 1431 1432 1434 1435 1438 1440 1443 1447 1451 1455 1458 1461 1463 1466
1495 1508 1517 1515 1516 1518 1516 1512 1508 1504 1499 1495 1490 1484 1479 1473 1466 1460 1453 1446 1440 1433 1427 1423 1421 1420 1419 1421 1422 1424 1425 1427 1429 1432 1434 1437 1440 1444 1448 1452 1455 1459 1461 1464
1499 1511 1514 1515 1516 1515 1512 1509 1504 1500 1495 1490 1485 1479 1474 1468 1462 1456 1450 1444 1437 1430 1424 1419 1415 1413 1412 1414 1417 1418 1420 1422 1424 1427 1430 1434 1437 1441 1444 1448 1452 1456 1459 1462
1506 1514 1513 1512 1513 1511 1507 1503 1498 1493 1489 1485 1479 1473 1468 1462 1457 1451 1446 1440 1435 1428 1422 1415 1409 1407 1407 1408 1410 1412 1414 1416 1419 1422 1426 1430 1433 1437 1442 1445 1449 1453 1456 1459
1520 1522 1521 1515 1511 1507 1503 1498 1493 1488 1482 1478 1473 1468 1462 1457 1452 1446 1441 1435 1430 1424 1418 1412 1406 1401 1400 1402 1404 1406 1408 1411 1414 1417 1421 1425 1430 1434 1438 1443 1446 1450 1454 1457
1522 1520 1517 1512 1507 1503 1498 1492 1486 1481 1475 1470 1465 1460 1455 1450 1445 1440 1435 1430 1425 1420 1414 1409 1404 1398 1395 1394 1397 1400 1403 1405 1408 1412 1416 1420 1425 1429 1433 1438 1443 1447 1450 1454
1518 1515 1511 1506 1501 1496 1490 1485 1479 1473 1468 1462 1457 1452 1447 1442 1437 1433 1429 1424 1419 1414 1410 1405 1400 1395 1391 1389 1390 1394 1397 1400 1403 1407 1411 1415 1420 1425 1429 1433 1437 1442 1446 1450
1513 1510 1504 1498 1493 1487 1482 1476 1470 1464 1458 1453 1449 1444 1439 1434 1430 1425 1421 1417 1412 1407 1403 1400 1396 1391 1387 1384 1382 1387 1391 1394 1398 1402 1406 1410 1415 1420 1424 1429 1433 1438 1441 1446
1508 1503 1498 1492 1486 1480 1475 1469 1462 1456 1450 1445 1440 1435 1431 1427 1422 1417 1413 1410 1405 1400 1396 1393 1390 1387 1384 1379 1377 1379 1384 1388 1392 1397 1401 1405 1410 1415 1419 1424 1428 1433 1436 1440
1502 1496 1491 1486 1480 1474 1469 1463 1457 1451 1444 1439 1433 1428 1423 1418 1413 1409 1405 1402 1397 1393 1389 1386 1383 1381 1379 1375 1372 1372 1376 1382 1387 1391 1396 1400 1405 1410 1414 1419 1423 1428 1431 1434
1500 1495 1489 1483 1477 1470 1463 1458 1452 1445 1439 1433 1427 1421 1415 1410 1405 1400 1396 1392 1388 1384 1381 1378 1376 1374 1372 1370 1367 1366 1369 1375 1381 1385 1390 1395 1400 1405 1410 1414 1418 1423 1427 1431
1495 1490 1484 1478 1472 1465 1459 1452 1445 1439 1432 1426 1419 1413 1407 1402 1396 1391 1387 1383 1380 1376 1373 1371 1369 1367 1366 1364 1362 1360 1363 1368 1374 1380 1386 1390 1395 1400 1405 1409 1414 1418 1423 1426
1490 1484 1478 1472 1466 1460 1452 1445 1438 1431 1424 1417 1410 1403 1396 1391 1386 1381 1377 1373 1370 1368 1365 1364 1362 1360 1359 1357 1356 1355 1357 1362 1368 1374 1380 1385 1390 1395 1400 1404 1409 1414 1418 1422
1484 1478 1472 1465 1459 1452 1445 1438 1430 1422 1415 1407 1400 1391 1384 1378 1374 1370 1366 1362 1359 1358 1357 1355 1354 1353 1352 1351 1350 1350 1352 1357 1363 1369 1375 1380 1385 1390 1395 1399 1404 1409 1413 1417
1479 1472 1466 1458 1451 1444 1437 1430 1422 1413 1405 1396 1387 1379 1371 1364 1360 1356 1353 1351 1349 1349 1349 1348 1347 1347 1346 1345 1344 1345 1348 1353 1358 1364 1370 1375 1380 1385 1390 1395 1399 1404 1408 1412
1474 1467 1459 1452 1444 1437 1429 1422 1414 1404 1394 1384 1375 1366 1358 1352 1347 1344 1340 1339 1340 1340 1340 1340 1341 1341 1341 1340 1340 1341 1344 1349 1353 1360 1365 1371 1376 1381 1386 1390 1395 1399 1403 1408
1468 1461 1454 1446 1439 1430 1422 1414 1405 1395 1385 1374 1364 1354 1346 1340 1335 1332 1330 1330 1330 1331 1333 1334 1335 1336 1336 1335 1336 1337 1341 1345 1350 1355 1361 1367 1372 1376 1381 1386 1390 1395 1399 1403
1462 1456 1448 1441 1433 1426 1418 1408 1398 1386 1376 1365 1354 1345 1337 1332 1327 1324 1323 1323 1324 1325 1327 1328 1329 1330 1330 1331 1332 1334 1338 1342 1347 1352 1357 1362 1367 1372 1377 1382 1386 1390 1394 1398
1458 1451 1444 1438 1431 1423 1414 1405 1394 1382 1371 1359 1349 1339 1332 1326 1322 1320 1319 1319 1320 1321 1322 1323 1324 1325 1326 1327 1329 1331 1335 1339 1344 1349 1354 1359 1364 1368 1373 1377 1381 1386 1390 1394
1454 1448 1441 1434 1428 1420 1411 1402 1391 1379 1367 1356 1346 1336 1329 1325 1321 1319 1318 1318 1318 1318 1319 1320 1321 1321 1322 1324 1326 1329 1333 1337 1342 1347 1351 1356 1360 1365 1369 1373 1377 1381 1385 1389